Wetterdaten Sommer 2003

Datum T max T min Regen
01.06.2003 33.9 °C 14 °C 0 mm
02.06.2003 35 °C 17.6 °C 0 mm
03.06.2003 35.9 °C 17.6 °C 0 mm
04.06.2003 35.4 °C 18.7 °C 0 mm
05.06.2003 33.3 °C 19.3 °C 0 mm
06.06.2003 32.5 °C 18.9 °C 0 mm
07.06.2003 31.8 °C 18.4 °C 0.4 mm
08.06.2003 33 °C 19.4 °C 0 mm
09.06.2003 31.5 °C 18.4 °C 0 mm
10.06.2003 37.2 °C 17.6 °C 0 mm
11.06.2003 36 °C 22.8 °C 0 mm
12.06.2003 39.4 °C 19.7 °C 0 mm
13.06.2003 32.1 °C 21 °C 0 mm
14.06.2003 32.4 °C 19.7 °C 2.9 mm
15.06.2003 31.3 °C 18.1 °C 1.8 mm
16.06.2003 32 °C 17.5 °C 0 mm
17.06.2003 33.2 °C 16.6 °C 0.4 mm
18.06.2003 23.9 °C 18.3 °C 0 mm
19.06.2003 24.9 °C 20.1 °C 0 mm
20.06.2003 26.8 °C 18.2 °C 0 mm
21.06.2003 28 °C 13.4 °C 0 mm
22.06.2003 36.5 °C 13.4 °C 0 mm
23.06.2003 35.5 °C 19.5 °C 2.2 mm
24.06.2003 30.2 °C 20.7 °C 0 mm
25.06.2003 33 °C 16.5 °C 0 mm
26.06.2003 34 °C 16.5 °C 0 mm
27.06.2003 29.6 °C 16.5 °C 16.2 mm
28.06.2003 30.2 °C 17.2 °C 0 mm
29.06.2003 34.3 °C 17.7 °C 0 mm
30.06.2003 35.8 °C 19.3 °C 13 mm
01.08.2003 33.7 °C 17.2 °C 0 mm
02.08.2003 37.4 °C 19.5 °C 0 mm
03.08.2003 40.6 °C 21.3 °C 0 mm
04.08.2003 41.2 °C 22.9 °C 0 mm
05.08.2003 40.9 °C 24 °C 0 mm
06.08.2003 39.2 °C 23.3 °C 0 mm
07.08.2003 40.5 °C 21.8 °C 0 mm
08.08.2003 40.8 °C 22.8 °C 0 mm
09.08.2003 41.7 °C 23.4 °C 0 mm
10.08.2003 39.1 °C 23.4 °C 0 mm
11.08.2003 39 °C 21.4 °C 0 mm
12.08.2003 41.4 °C 21.2 °C 0 mm
13.08.2003 39.2 °C 23.3 °C 0 mm
14.08.2003 34.2 °C 22.6 °C 0 mm
15.08.2003 30.8 °C 17.3 °C 2.2 mm
16.08.2003 33.9 °C 15.6 °C 0 mm
17.08.2003 36.7 °C 20.6 °C 7.6 mm
18.08.2003 29.7 °C 20 °C 5.4 mm
19.08.2003 30.3 °C 18.7 °C 0 mm
20.08.2003 30.1 °C 18.9 °C 0 mm
21.08.2003 29.7 °C 17.5 °C 0 mm
22.08.2003 31.5 °C 18 °C 0 mm
23.08.2003 31.9 °C 16.2 °C 0 mm
24.08.2003 32.9 °C 17.5 °C 0 mm
25.08.2003 31.6 °C 14.9 °C 0 mm
26.08.2003 31.1 °C 15.3 °C 0 mm
27.08.2003 28.7 °C 16.7 °C 0 mm
28.08.2003 30.7 °C 15.5 °C 0 mm
29.08.2003 28.2 °C 17 °C 14.8 mm
30.08.2003 21.3 °C 14.4 °C 2.5 mm
31.08.2003 20.9 °C 12.4 °C 4.3 mm
*) Messwert für diesen Zeitpunkt noch nicht verfügbar
 Hinweis zur Datenqualität
∅ Temperatur

24.9 °C

Abweichung vom Mittel

+6.2 °C

Niederschlag

73.4 mm

Abweichung vom Mittel

33 %

41.7 °C

Lufttemperatur
09.08.2003

1020 hPa

Luftdruck
19.06.2003

0 km/h

Windböen
13.08.2003

73.44 mm

Niederschlag
 

12.4 °C

Lufttemperatur
31.08.2003

*) °C

Bodentemperatur 5cm
01.01.1970

998 hPa

Luftdruck
29.08.2003
*) Messwert für diesen Zeitpunkt noch nicht verfügbar
 Hinweis zur Datenqualität